FW2295 Weather Reports


time (UTC)temp
C
wind
direction
speed
KPH
gust
KPH
rain 1hr
cm
rain 24hr
cm
rain mn
cm
humidity
%
barometer
mb
20260507023613 7 61 0.0 1.6 0.00 0.00 0.00 53 1017.9
20260507022556 7 61 0.0 4.8 0.00 0.00 0.00 52 1017.9
20260507021546 7 61 0.0 4.8 0.00 0.00 0.00 52 1017.9
20260507020555 8 68 0.0 4.8 0.00 0.00 0.00 51 1017.8
20260507015618 8 60 0.0 4.8 0.00 0.00 0.00 51 1017.8
20260507013554 8 11 0.0 0.0 0.00 0.00 0.00 49 1017.7
20260507011529 9 349 0.0 4.8 0.00 0.00 0.00 48 1017.7
20260507010528 9 332 1.6 14.5 0.00 0.00 0.00 47 1017.7
20260507005518 10 321 3.2 12.9 0.00 0.00 0.00 46 1017.8
20260507004444 10 326 3.2 16.1 0.00 0.00 0.00 45 1017.8
20260507002410 10 277 4.8 14.5 0.00 0.00 0.00 46 1017.8
20260507001428 10 322 3.2 14.5 0.00 0.00 0.00 45 1017.8
20260506235441 10 300 8.0 22.5 0.00 0.00 0.00 43 1018.0
20260506234426 10 295 6.4 16.1 0.00 0.00 0.00 44 1018.0
20260506231317 10 323 6.4 16.1 0.00 0.00 0.00 44 1018.1
20260506230316 10 315 6.4 24.1 0.00 0.00 0.00 44 1018.2
20260506225251 11 341 11.3 24.1 0.00 0.00 0.00 44 1018.4
20260506223258 11 295 8.0 22.5 0.00 0.00 0.00 44 1018.3
20260506222234 11 271 8.0 19.3 0.00 0.00 0.00 44 1018.4
20260506221208 10 285 8.0 24.1 0.00 0.00 0.00 46 1018.5
20260506220150 10 326 11.3 24.1 0.00 0.00 0.00 45 1018.5
20260506215135 10 283 8.0 19.3 0.00 0.00 0.00 43 1018.5
20260506214102 10 304 9.7 20.9 0.00 0.00 0.00 44 1018.8
20260506212044 10 264 11.3 20.9 0.00 0.00 0.00 44 1018.8
20260506211035 10 305 11.3 24.1 0.00 0.00 0.00 47 1019.0
20260506210011 10 328 11.3 30.6 0.00 0.00 0.00 47 1019.1
20260506204013 10 283 9.7 27.4 0.00 0.00 0.00 46 1019.5
20260506203036 10 262 11.3 25.7 0.00 0.00 0.00 44 1019.6
20260506202020 10 295 11.3 25.7 0.00 0.00 0.00 46 1019.5
20260506201012 10 354 11.3 22.5 0.00 0.00 0.00 45 1019.5
20260506200018 10 281 12.9 27.4 0.00 0.00 0.00 47 1019.8
20260506195020 9 273 11.3 27.4 0.00 0.00 0.00 47 1019.9
20260506193958 9 271 11.3 22.5 0.00 0.00 0.00 48 1019.9
20260506193024 8 297 9.7 20.9 0.00 0.00 0.00 47 1020.0
20260506192005 9 347 9.7 24.1 0.00 0.00 0.00 49 1020.0
20260506191029 8 303 9.7 27.4 0.00 0.00 0.00 50 1020.1
20260506190033 8 282 11.3 27.4 0.00 0.00 0.00 49 1020.1
20260506185009 8 297 12.9 27.4 0.00 0.00 0.00 49 1020.2
20260506184018 8 270 11.3 22.5 0.00 0.00 0.00 50 1020.4
20260506181916 8 316 11.3 33.8 0.00 0.00 0.00 51 1020.7
20260506180906 7 284 12.9 33.8 0.00 0.00 0.00 52 1020.7
20260506175847 7 321 14.5 32.2 0.00 0.00 0.00 52 1020.8
20260506174908 7 301 14.5 27.4 0.00 0.00 0.00 52 1020.9
20260506173933 7 345 12.9 33.8 0.00 0.00 0.00 53 1020.8
20260506172917 7 290 14.5 33.8 0.00 0.00 0.00 52 1021.0
20260506171902 6 337 12.9 30.6 0.00 0.00 0.00 54 1021.0
20260506165933 6 312 11.3 24.1 0.00 0.00 0.00 54 1021.0
20260506164945 6 289 14.5 29.0 0.00 0.00 0.00 55 1021.1
20260506163920 6 292 11.3 29.0 0.00 0.00 0.00 56 1021.1
20260506162939 6 293 12.9 32.2 0.00 0.00 0.00 55 1021.1
20260506161937 6 306 11.3 32.2 0.00 0.00 0.00 54 1021.1
20260506155901 6 354 11.3 29.0 0.00 0.00 0.00 55 1021.1
20260506154914 6 354 14.5 29.0 0.00 0.00 0.00 55 1021.1
20260506152832 6 297 11.3 24.1 0.00 0.00 0.00 56 1021.1
20260506151818 6 283 12.9 24.1 0.00 0.00 0.00 54 1021.2
20260506150802 5 327 12.9 30.6 0.00 0.00 0.00 56 1021.1
20260506145742 5 330 11.3 30.6 0.00 0.00 0.00 57 1021.1
20260506144717 5 299 11.3 24.1 0.00 0.00 0.00 58 1021.2
20260506143722 5 298 9.7 22.5 0.00 0.00 0.00 59 1021.2
20260506142714 5 288 11.3 22.5 0.00 0.00 0.00 59 1021.1
20260506141650 5 291 9.7 20.9 0.00 0.00 0.00 62 1021.0
20260506140653 5 354 9.7 22.5 0.00 0.00 0.00 62 1021.0
20260506135704 4 287 11.3 22.5 0.00 0.00 0.00 63 1021.0
20260506134701 4 291 8.0 20.9 0.00 0.00 0.00 63 1021.0
20260506133654 4 289 9.7 19.3 0.00 0.00 0.00 66 1021.0
20260506131703 3 293 4.8 16.1 0.00 0.00 0.00 69 1020.9
20260506125656 3 282 3.2 14.5 0.00 0.00 0.00 69 1020.8
20260506124708 3 287 3.2 11.3 0.00 0.00 0.00 72 1020.7
20260506123646 3 310 1.6 6.4 0.00 0.00 0.00 73 1020.5
20260506122700 2 289 1.6 9.7 0.00 0.00 0.00 73 1020.3
20260506120632 2 284 3.2 9.7 0.00 0.00 0.00 73 1020.3
20260506115655 2 321 1.6 8.0 0.00 0.00 0.00 74 1020.1
20260506114658 2 281 1.6 4.8 0.00 0.00 0.00 73 1019.7
20260506113721 2 276 1.6 9.7 0.00 0.00 0.00 73 1019.6
20260506112700 2 275 1.6 9.7 0.00 0.00 0.00 73 1019.8
20260506111654 2 274 3.2 8.0 0.00 0.00 0.00 73 1019.8
20260506110702 2 278 0.0 8.0 0.00 0.00 0.00 74 1019.3
20260506105720 2 297 0.0 4.8 0.00 0.00 0.00 74 1019.3
20260506104716 2 312 0.0 4.8 0.00 0.00 0.00 73 1019.3
20260506103711 2 303 0.0 4.8 0.00 0.00 0.00 73 1019.0
20260506102717 2 300 0.0 3.2 0.00 0.00 0.00 74 1019.2
20260506101723 2 318 0.0 3.2 0.00 0.00 0.00 74 1019.0
20260506095711 1 316 1.6 4.8 0.00 0.00 0.00 77 1019.1
20260506094700 1 308 0.0 3.2 0.00 0.00 0.00 78 1019.0
20260506092713 1 314 0.0 3.2 0.00 0.00 0.00 77 1018.9
20260506091701 1 316 0.0 3.2 0.00 0.00 0.00 77 1018.7
20260506090722 1 317 0.0 0.0 0.00 0.00 0.00 77 1018.5
20260506085734 0 317 0.0 0.0 0.00 0.00 0.00 77 1018.6
20260506084732 0 318 0.0 3.2 0.00 0.00 0.00 77 1018.8
20260506083735 0 320 0.0 0.0 0.00 0.00 0.00 76 1018.8
20260506082712 0 320 0.0 1.6 0.00 0.00 0.00 76 1018.7
20260506081653 0 320 0.0 0.0 0.00 0.00 0.00 76 1018.4
20260506080700 0 320 0.0 0.0 0.00 0.00 0.00 77 1018.2
20260506072615 0 320 0.0 0.0 0.00 0.00 0.00 75 1018.2
20260506070647 0 320 0.0 0.0 0.00 0.00 0.00 74 1018.5
20260506061636 1 326 0.0 0.0 0.00 0.00 0.00 70 1018.1
20260506060702 1 326 0.0 1.6 0.00 0.00 0.00 69 1018.1
20260506050706 2 4 0.0 4.8 0.00 0.00 0.00 67 1017.7
20260506043709 3 326 0.0 6.4 0.00 0.00 0.00 66 1018.0
20260506041643 3 324 0.0 3.2 0.00 0.00 0.00 66 1018.1
20260506040705 3 324 0.0 8.0 0.00 0.00 0.00 64 1018.2
20260506035704 3 330 0.0 3.2 0.00 0.00 0.00 63 1018.0
20260506034654 3 335 0.0 3.2 0.00 0.00 0.00 61 1017.9
20260506033702 4 335 0.0 8.0 0.00 0.00 0.00 60 1017.8
20260506032638 4 339 4.8 11.3 0.00 0.00 0.00 58 1017.8
20260506031608 5 305 4.8 14.5 0.00 0.00 0.00 57 1017.6
20260506025559 5 332 4.8 14.5 0.00 0.00 0.00 56 1017.4
20260506024605 5 337 6.4 20.9 0.00 0.00 0.00 54 1017.2